Regional Weather Roundup
Issued by NWS Albany, NY

Home | Current Version | Previous Version | Text Only | Print | Product List | Glossary On
Versions: 1 2 3 4 5 6 7 8 9 10 11 12 13 14 15 16 17 18 19 20 21 22 23 24 25 26 27 28 29 30 31 32 33 34 35 36 37 38 39 40 41 42 43 44 45 46 47 48 49 50
000
ASUS41 KALY 060510
RWRALY

NEW YORK STATE HOURLY WEATHER ROUNDUP
NATIONAL WEATHER SERVICE ALBANY NY
1200 AM EST FRI MAR 06 2015

NOTE: "FAIR" INDICATES FEW OR NO CLOUDS BELOW 12,000 FEET WITH NO
SIGNIFICANT WEATHER AND/OR NO OBSTRUCTIONS TO VISIBILITY.

NYZ032-033-038>043-046>054-057>066-NYZ062>081-060600-
EAST


CITY           SKY/WX    TMP DP  RH WIND       PRES   REMARKS
ALBANY         CLEAR     11  -5  48 NW12      30.43R WCI  -3
GLENS FALLS    CLEAR     -1  -9  68 CALM      30.41R
POUGHKEEPSIE   PTCLDY    17  -1  45 NW12      30.41R WCI   4
NEWBURGH       PTCLDY    14   3  62 NW12      30.38R WCI   0
MONTGOMERY     PTCLDY    14   0  53 NW15      30.38R WCI  -1
WHITE PLAINS   MOCLDY    17   3  54 NW8       30.33R WCI   7
ISLIP          CLOUDY    20   7  57 N20G26    30.31R WCI   4
NEW YORK CITY  CLOUDY    21   6  52 NW20      30.38R WCI   6
CENTRAL PARK   MOCLDY    19   3  49 VRB7      30.40R WCI  10
$$

NYZ005>009-017-018-044>046-055-056-060600-
CENTRAL


CITY           SKY/WX    TMP DP  RH WIND       PRES   REMARKS
FULTON         LGT SNOW  11   6  81 W9        30.44R WCI  -2
SYRACUSE       FLURRIES   5   2  87 W13       30.45R WCI -12
ROME           LGT SNOW   6   2  83 CALM      30.44S FOG
ELMIRA         CLEAR      5  -4  66 SE5       30.44R WCI  -4
BINGHAMTON     CLEAR      4  -2  76 NW7       30.32F WCI  -8
MONTICELLO     CLEAR      9   0  66 NW13      30.32R WCI  -7
$$

NYZ026>034-041>043-060600-
NORTH


CITY           SKY/WX    TMP DP  RH WIND       PRES   REMARKS
WATERTOWN      CLEAR      3  -6  66 SW7       30.44R WCI  -9
FORT DRUM      NOT AVBL
MASSENA        CLEAR    -16 -21  78 CALM      30.42S
SARANAC LAKE   CLEAR    -21 -25  81 CALM      30.25R
PLATTSBURGH    CLEAR      0 -11  59 SW3       30.40R
$$

NYZ001>004-010>016-019>021-060600-
WEST


CITY           SKY/WX    TMP DP  RH WIND       PRES   REMARKS
NIAGARA FALLS  CLEAR      3  -5  69 W9        30.48S WCI -12
BUFFALO        CLEAR      6  -3  66 W7        30.47F WCI  -6
DUNKIRK        CLEAR      6   0  76 W5        30.50F WCI  -3
JAMESTOWN      CLOUDY     5   0  78 W6        30.37F WCI  -6
WELLSVILLE     CLEAR      0  -7  72 NW7       30.33F WCI -13
ROCHESTER      CLEAR      7  -3  64 W9        30.47S WCI  -7
PENN YAN       CLEAR      5  -4  66 SW8       30.42S WCI  -8
$$

             KEY
       WCI = WIND CHILL INDEX
       VSB = VISIBILITY
       HX  = HEAT INDEX
$$



USA.gov is the U.S. government's official web portal to all federal, state and local government web resources and services.